Regional Weather Roundup
Issued by NWS

Home | Current Version | Previous Version | Text Only | Print | Product List | Glossary On
Versions: 1 2 3 4 5 6 7 8 9 10 11 12 13 14 15 16 17 18 19 20 21 22 23 24 25 26 27 28 29 30 31 32 33 34 35 36 37 38 39 40 41 42 43 44 45 46 47 48 49 50
000
ASUS44 KOUN 030610
RWROK

WEATHER ROUNDUP FOR OKLAHOMA
NATIONAL WEATHER SERVICE NORMAN OK
100 AM CDT THU SEP 03 2015

NOTE: "FAIR" INDICATES FEW OR NO CLOUDS BELOW 12,000 FEET WITH NO
      SIGNIFICANT WEATHER AND/OR OBSTRUCTIONS TO VISIBILITY.

OKZ001>007-009>012-014-015-017-030700-
NORTHWEST OKLAHOMA AND THE PANHANDLE

CITY           SKY/WX    TMP DP  RH WIND       PRES   REMARKS
GAGE           FAIR      79  59  50 S21       29.94S
6HR MIN TEMP:  78; 6HR MAX TEMP:  92;

GUYMON         FAIR      75  57  53 S9        29.95S
ENID/WOODRING  FAIR      72  63  73 S5        29.93S
$$

OKZ016-021>023-033>039-044-045-030700-
SOUTHWEST OKLAHOMA

CITY           SKY/WX    TMP DP  RH WIND       PRES   REMARKS
LAWTON/REGL    FAIR      77  61  57 S7        29.95S
6HR MIN TEMP:  77; 6HR MAX TEMP:  93;

LAWTON/FT SILL FAIR      76  63  63 S7        29.94F
FREDERICK      FAIR      77  61  57 S9        29.92S
CLINTON        FAIR      78  59  51 S15       29.98S
HOBART         FAIR      79  61  53 S14       29.96S
ALTUS AFB      CLEAR     73  60  63 SE7       29.94S
$$

OKZ018>020-024>031-030700-
CENTRAL OKLAHOMA

CITY           SKY/WX    TMP DP  RH WIND       PRES   REMARKS
OKLAHOMA CITY  FAIR      71  63  75 S7        29.96S
6HR MIN TEMP:  71; 6HR MAX TEMP:  89;

OKC/WILEY POST FAIR      77  62  59 S13       29.96S
OKC/TINKER AFB FAIR      75  64  68 S13       29.96S
STILLWATER     FAIR      74  63  68 S8        29.95S
GUTHRIE        FAIR      78  62  57 S10       29.94F
$$

OKZ008-013-054>072-030700-
NORTHEAST OKLAHOMA

CITY           SKY/WX    TMP DP  RH WIND       PRES   REMARKS
TULSA          FAIR      74  70  87 SE5       29.94S
6HR MIN TEMP:  73; 6HR MAX TEMP:  89;

TULSA/JONES    FAIR      71  68  90 CALM      29.96S FOG
PONCA CITY     FAIR      80  64  58 S8        29.94S
BARTLESVILLE   FAIR      73  70  90 CALM      29.96S
MUSKOGEE       FAIR      74  70  87 SE7       29.97F
$$

OKZ032-040>043-046>053-073>077-030700-
SOUTH CENTRAL/SOUTHEAST OKLAHOMA

CITY           SKY/WX    TMP DP  RH WIND       PRES   REMARKS
ARDMORE/DWNTWN FAIR      75  63  64 CALM      29.97S
MCALESTER      FAIR      76  65  68 CALM      29.98S
$$



USA.gov is the U.S. government's official web portal to all federal, state and local government web resources and services.